Location: PSU-Greenbush Astrophysical Observatory
(37.5140°N, 94.9880°W)
Time: 00:40:12
(UTC-06:00)

deb Explorer IX - Pass Details

Date: 26 January 2020
Orbit: 549 x 1099 km, 38.8° (Epoch: 27 February)

Event Time Altitude Azimuth Distance (km) Brightness Sun altitude
Rises 21:30:18 0° 244° (WSW) 3,634 ? -46.1°
Reaches altitude 10° 21:32:50 10° 242° (WSW) 2,755 ? -46.6°
Enters shadow 21:33:13 12° 242° (WSW) 2,620 ? -46.7°
Maximum altitude 21:39:36 72° 160° (SSE) 1,116 - -47.9°
Drops below altitude 10° 21:46:53 10° 77° (ENE) 2,949 - -49.3°
Sets 21:49:41 0° 76° (ENE) 3,904 - -49.8°
